Weather History for Charlevoix, MI

Change the Weather History Date:

Sunday, October 6, 2013

  Actual Average Record
Temperature  
Mean Temperature 58 °F -  
Max Temperature 65 °F 63 °F 77 °F (2007)
Min Temperature 52 °F 46 °F 33 °F (2003)
Degree Days  
Heating Degree Days 6    
Growing Degree Days 8 (Base 50)    
Moisture  
Dew Point 57 °F    
Average Humidity 97    
Maximum Humidity 100    
Minimum Humidity 88    
Precipitation  
Precipitation 0.00 in - - ()
Sea Level Pressure  
Sea Level Pressure 29.71 in    
Wind  
Wind Speed 10 mph (South)    
Max Wind Speed 18 mph    
Max Gust Speed 26 mph    
Visibility 10 miles    
Events Rain    
Averages and records for this station are not official NWS values.
T = Trace of Precipitation, MM = Missing Value Source: NWS Daily Summary

Daily Weather History Graph

Daily Weather History Graph

Search for Another Location

Airport:

Trip Planner

Search our weather history database for the weather conditions in past years. The results will help you decide how hot, cold, wet, or windy it might be!

Date:

Astronomy

Oct. 06, 2013 Rise Set
Actual Time 7:45 AM EDT 7:11 PM EDT
Civil Twilight 7:16 AM EDT 7:41 PM EDT
Nautical Twilight 6:42 AM EDT 8:15 PM EDT
Astronomical Twilight 6:07 AM EDT 8:49 PM EDT
Moon 9:35 AM EDT (10/6) 8:03 PM EDT (10/6)
Length of Visible Light 12h 24m
Length of Day
11h 25m
Waxing Crescent, 3% of the Moon is Illuminated
Oct 6
Waxing Crescent
Oct 11
First Quarter
Oct 18
Full
Oct 26
Last Quarter
Nov 3
New

Hourly Weather History & Observations

Time (EDT) Temp. Dew Point Humidity Pressure Visibility Wind Dir Wind Speed Gust Speed Precip Events Conditions
12:15 AM 55.6 °F 55.4 °F 99% 29.89 in 10.0 mi East 16.1 mph 21.9 mph N/A Rain Rain
12:34 AM 55.8 °F 55.4 °F 99% 29.88 in 10.0 mi ESE 12.7 mph - N/A Rain Light Rain
12:54 AM 55.6 °F 55.6 °F 100% 29.87 in 10.0 mi ESE 15.0 mph - N/A Rain Light Rain
1:15 AM 55.9 °F 55.9 °F 100% 29.85 in 10.0 mi ESE 16.1 mph 21.9 mph N/A Rain Light Rain
1:34 AM 56.1 °F 56.1 °F 100% 29.84 in 10.0 mi ESE 17.3 mph 21.9 mph N/A Rain Light Rain
1:55 AM 56.3 °F 56.1 °F 99% 29.83 in 10.0 mi ESE 17.3 mph 26.5 mph N/A Rain Light Rain
2:15 AM 56.5 °F 56.5 °F 100% 29.82 in 10.0 mi East 15.0 mph 25.3 mph N/A   Overcast
2:34 AM 56.5 °F 56.3 °F 99% 29.81 in 10.0 mi East 18.4 mph 24.2 mph N/A   Overcast
2:55 AM 56.8 °F 56.8 °F 100% 29.80 in 10.0 mi ESE 15.0 mph - N/A   Overcast
3:15 AM 57.2 °F 57.2 °F 100% 29.80 in 10.0 mi East 12.7 mph 18.4 mph N/A   Overcast
3:34 AM 57.4 °F 57.4 °F 100% 29.77 in 10.0 mi East 15.0 mph - N/A   Mostly Cloudy
3:55 AM 57.4 °F 57.4 °F 100% 29.77 in 10.0 mi ESE 10.4 mph 17.3 mph N/A   Mostly Cloudy
4:14 AM 57.4 °F 57.4 °F 100% 29.76 in 10.0 mi ESE 12.7 mph - N/A   Overcast
4:35 AM 57.4 °F 57.4 °F 100% 29.75 in 10.0 mi ESE 10.4 mph - N/A   Overcast
4:55 AM 57.7 °F 57.7 °F 100% 29.75 in 10.0 mi ESE 10.4 mph - N/A   Overcast
5:14 AM 58.1 °F 58.1 °F 100% 29.76 in 10.0 mi ESE 9.2 mph - N/A   Overcast
5:35 AM 58.3 °F 58.3 °F 100% 29.74 in 10.0 mi ESE 9.2 mph - N/A   Overcast
5:54 AM 58.6 °F 58.6 °F 100% 29.74 in 10.0 mi ESE 8.1 mph - N/A   Overcast
6:14 AM 59.0 °F 59.0 °F 100% 29.74 in 10.0 mi ESE 8.1 mph - N/A   Overcast
6:35 AM 59.4 °F 59.4 °F 100% 29.73 in 10.0 mi ESE 8.1 mph - N/A   Overcast
6:54 AM 59.5 °F 59.5 °F 100% 29.74 in 10.0 mi ESE 6.9 mph - N/A   Overcast
7:14 AM 59.4 °F 59.4 °F 100% 29.73 in 10.0 mi East 5.8 mph - N/A   Overcast
7:35 AM 59.4 °F 59.4 °F 100% 29.73 in 10.0 mi East 5.8 mph - N/A   Overcast
7:54 AM 59.9 °F 59.9 °F 100% 29.72 in 10.0 mi ESE 6.9 mph - N/A   Overcast
8:15 AM 60.1 °F 60.1 °F 100% 29.72 in 10.0 mi SE 4.6 mph - N/A   Overcast
8:35 AM 60.4 °F 60.4 °F 100% 29.71 in 10.0 mi ESE 5.8 mph - N/A   Overcast
8:54 AM 60.8 °F 60.8 °F 100% 29.71 in 10.0 mi ESE 5.8 mph - N/A   Overcast
9:15 AM 61.2 °F 61.2 °F 100% 29.71 in 10.0 mi SE 4.6 mph - N/A   Overcast
9:35 AM 61.7 °F 61.7 °F 100% 29.70 in 10.0 mi SE 3.5 mph - N/A   Overcast
9:54 AM 62.6 °F 62.6 °F 100% 29.69 in 10.0 mi Calm Calm - N/A   Overcast
10:15 AM 63.0 °F 63.0 °F 100% 29.69 in 10.0 mi Calm Calm - N/A   Overcast
10:34 AM 63.1 °F 63.1 °F 100% 29.69 in 7.0 mi Calm Calm - N/A   Overcast
10:55 AM 63.5 °F 63.5 °F 100% 29.68 in 10.0 mi ESE 4.6 mph - N/A   Overcast
11:15 AM 63.9 °F 63.9 °F 100% 29.68 in 10.0 mi Calm Calm - N/A   Overcast
11:34 AM 64.6 °F 64.6 °F 100% 29.67 in 10.0 mi ESE 3.5 mph - N/A   Overcast
11:55 AM 65.1 °F 65.1 °F 100% 29.67 in 3.0 mi Calm Calm - N/A Rain Rain
12:15 PM 62.4 °F 62.4 °F 100% 29.69 in 3.0 mi WSW 13.8 mph 26.5 mph N/A Rain Light Rain
12:34 PM 61.3 °F 61.3 °F 100% 29.69 in 10.0 mi WSW 11.5 mph - N/A   Overcast
12:55 PM 61.2 °F 61.2 °F 100% 29.69 in 10.0 mi WSW 12.7 mph 16.1 mph N/A   Overcast
1:14 PM 61.7 °F 61.7 °F 100% 29.69 in 10.0 mi WSW 12.7 mph 17.3 mph N/A   Overcast
1:34 PM 61.3 °F 61.2 °F 99% 29.69 in 10.0 mi West 10.4 mph - N/A   Overcast
1:55 PM 60.4 °F 60.3 °F 99% 29.69 in 10.0 mi WSW 13.8 mph 19.6 mph N/A   Overcast
2:14 PM 60.1 °F 59.5 °F 98% 29.69 in 10.0 mi WSW 12.7 mph - N/A   Overcast
2:35 PM 59.4 °F 58.6 °F 97% 29.69 in 10.0 mi WSW 12.7 mph - N/A Rain Light Rain
2:54 PM 58.5 °F 58.1 °F 99% 29.68 in 10.0 mi WSW 9.2 mph - N/A Rain Light Rain
3:14 PM 59.0 °F 59.0 °F 100% 29.68 in 10.0 mi WSW 5.8 mph - N/A Rain Light Rain
3:35 PM 59.0 °F 59.0 °F 100% 29.67 in 10.0 mi SW 5.8 mph - N/A   Overcast
3:54 PM 59.2 °F 59.0 °F 99% 29.67 in 10.0 mi SW 4.6 mph - N/A Rain Light Rain
4:15 PM 58.8 °F 57.2 °F 94% 29.67 in 10.0 mi SW 6.9 mph - N/A   Overcast
4:35 PM 58.5 °F 57.4 °F 96% 29.67 in 10.0 mi WSW 9.2 mph - N/A Rain Light Rain
4:54 PM 57.7 °F 57.4 °F 99% 29.66 in 10.0 mi WSW 5.8 mph - N/A Rain Light Rain
5:15 PM 57.6 °F 57.2 °F 99% 29.66 in 10.0 mi SW 5.8 mph - N/A   Overcast
5:35 PM 57.6 °F 56.5 °F 96% 29.66 in 10.0 mi WSW 8.1 mph - N/A   Overcast
5:54 PM 57.2 °F 55.2 °F 93% 29.67 in 10.0 mi WSW 10.4 mph - N/A   Overcast
6:15 PM 56.7 °F 54.5 °F 92% 29.67 in 10.0 mi SW 5.8 mph - N/A   Mostly Cloudy
6:35 PM 56.3 °F 53.2 °F 89% 29.67 in 10.0 mi SW 4.6 mph - N/A   Overcast
6:54 PM 56.5 °F 53.1 °F 88% 29.67 in 10.0 mi SW 5.8 mph - N/A   Mostly Cloudy
7:15 PM 55.8 °F 52.9 °F 90% 29.67 in 10.0 mi SW 4.6 mph - N/A   Scattered Clouds
7:35 PM 55.2 °F 52.3 °F 90% 29.67 in 10.0 mi Calm Calm - N/A   Clear
7:54 PM 54.5 °F 51.8 °F 91% 29.67 in 10.0 mi SSW 3.5 mph - N/A   Clear
8:15 PM 53.6 °F 51.4 °F 92% 29.67 in 10.0 mi SSW 3.5 mph - N/A   Clear
8:35 PM 53.2 °F 51.3 °F 93% 29.67 in 10.0 mi South 5.8 mph - N/A   Clear
8:54 PM 52.9 °F 50.9 °F 93% 29.67 in 10.0 mi South 4.6 mph - N/A   Clear
9:15 PM 52.9 °F 50.9 °F 93% 29.67 in 10.0 mi South 4.6 mph - N/A   Clear
9:34 PM 52.7 °F 51.1 °F 94% 29.67 in 10.0 mi South 5.8 mph - N/A   Clear
9:54 PM 52.9 °F 50.7 °F 92% 29.66 in 10.0 mi SSW 5.8 mph - N/A   Clear
10:15 PM 52.7 °F 50.5 °F 92% 29.66 in 10.0 mi SSW 5.8 mph - N/A   Clear
10:34 PM 52.9 °F 50.5 °F 92% 29.66 in 10.0 mi SSW 4.6 mph - N/A   Clear
10:55 PM 53.2 °F 50.9 °F 92% 29.66 in 10.0 mi SW 5.8 mph - N/A   Clear
11:14 PM 53.1 °F 50.5 °F 91% 29.65 in 10.0 mi SSW 3.5 mph - N/A   Clear
11:35 PM 52.7 °F 50.2 °F 91% 29.64 in 10.0 mi SSW 4.6 mph - N/A   Clear
11:55 PM 52.2 °F 50.0 °F 92% 29.64 in 10.0 mi South 4.6 mph - N/A   Scattered Clouds